Simultaneous Nadir Overpasses (SNOs) Predictions

Prediction of SNOs between AQUA and METOP-B Satellite Orbit:

Table of predicted SNOs for the next 14.0 days since TLE Epoch: 6/8/2024
Index Date (AQUA) Time (AQUA) Lat,Lon (AQUA) SZA (AQUA ) Date (METOP-B) Time (METOP-B) Lat,Lon (METOP-B) SZA (METOP-B ) Distance(km) Time Diff (sec)
1 06/08/2024 09:28:44 75.82, 35.08 52.86 06/08/2024 09:28:24 75.80, 35.07 52.83 2.59 20
2 06/08/2024 10:18:06 -75.88,-157.43 127.10 06/08/2024 10:19:04 -75.88,-157.35 127.10 2.16 58
3 06/11/2024 00:49:53 -75.83, -15.17 127.35 06/11/2024 00:49:14 -75.83, -15.08 127.35 2.42 39
4 06/11/2024 01:39:17 75.88, 152.33 52.71 06/11/2024 01:39:53 75.85, 152.34 52.68 2.87 36
5 06/13/2024 16:11:01 75.82, -65.39 52.50 06/13/2024 16:10:01 75.83, -65.29 52.51 2.85 60
6 06/13/2024 17:00:23 -75.87, 102.13 127.46 06/13/2024 17:00:42 -75.87, 102.16 127.46 0.86 19
7 06/16/2024 07:32:06 -75.80,-115.54 127.64 06/16/2024 07:30:53 -75.74,-115.81 127.69 9.69 73
8 06/16/2024 08:21:30 75.86, 51.91 52.43 06/16/2024 08:21:30 75.85, 51.89 52.43 1.33 0
9 06/16/2024 09:10:56 -76.10,-141.16 127.32 06/16/2024 09:12:06 -76.12,-139.88 127.32 34.46 70
10 06/18/2024 23:42:34 -75.87, 1.66 127.61 06/18/2024 23:42:20 -75.84, 1.64 127.64 3.27 14
11 06/19/2024 00:31:57 75.90, 169.24 52.41 06/19/2024 00:32:58 75.91, 169.18 52.42 2.11 61
12 06/21/2024 15:03:37 75.86, -48.52 52.37 06/21/2024 15:03:07 75.84, -48.59 52.35 2.96 30



Historial Predications of SNOs between AQUA and METOP-B
